Location: Fort Wayne
(41.1310°N, 85.1290°W)
Time: 22:22:10
(UTC-04:00)

SR - Visible Passes

Search period start: 01 October 2014 00:00
Search period end: 11 October 2014 00:00
Orbit: 575 x 890 km, 66.7° (Epoch: 01 October)

Date Brightness Start Highest point End Pass type
(mag) Time Alt. Az. Time Alt. Az. Time Alt. Az.
01 Oct ? 03:54:56 10° NNE 03:56:54 12° NNE 03:58:50 10° NE visible
01 Oct ? 05:35:02 10° NNW 05:40:35 51° NE 05:45:39 10° SE visible
01 Oct ? 20:04:58 10° S 20:10:13 38° ESE 20:15:40 10° NE visible
01 Oct ? 21:47:02 10° WSW 21:52:26 38° NW 21:58:00 10° NNE visible
02 Oct ? 04:47:02 10° NNW 04:52:00 30° NE 04:56:37 10° ESE visible
02 Oct ? 06:29:07 10° NW 06:34:23 44° WSW 06:39:12 10° S visible
02 Oct ? 20:58:10 10° SW 21:03:56 65° WNW 21:09:54 10° NNE visible
02 Oct ? 22:44:03 10° WNW 22:47:21 15° NW 22:50:39 10° N visible
03 Oct ? 03:59:19 10° N 04:03:12 18° NE 04:06:55 10° E visible
03 Oct ? 05:40:35 10° NNW 05:46:14 85° WSW 05:51:22 10° SSE visible
03 Oct ? 20:09:52 10° SSW 20:15:37 72° ESE 20:21:35 10° NE visible
03 Oct ? 21:53:49 10° W 21:58:27 23° NW 22:03:08 10° N visible
04 Oct ? 04:56:06 37° N 04:57:52 52° NE 05:02:55 10° SE visible
04 Oct ? 06:35:56 12° WNW 06:39:35 22° WSW 06:43:26 10° SSW visible
04 Oct ? 21:04:20 10° WSW 21:09:44 37° NW 21:15:16 10° NNE visible
05 Oct ? 04:13:05 14° ESE 04:13:05 14° ESE 04:13:53 10° ESE visible
05 Oct ? 05:52:50 37° SW 05:52:50 37° SW 05:56:25 10° S visible
05 Oct ? 20:15:27 10° SW 20:21:13 64° WNW 20:27:11 10° NNE visible
05 Oct ? 22:01:24 10° WNW 22:04:39 15° NW 22:07:54 10° N visible
06 Oct ? 21:11:08 10° W 21:15:44 23° NW 21:20:23 10° N visible
07 Oct ? 20:21:37 10° WSW 20:27:01 37° NW 20:32:32 10° NNE visible
08 Oct ? 19:32:42 10° SW 19:38:29 63° WNW 19:44:26 10° NNE visible
08 Oct ? 21:18:44 10° WNW 21:21:55 15° NW 21:25:07 10° N visible
09 Oct ? 20:28:25 10° W 20:33:00 23° NW 20:37:37 10° N visible
10 Oct ? 19:38:52 10° WSW 19:44:16 36° NW 19:49:46 10° NNE visible
